Simultaneous Nadir Overpasses (SNOs) Predictions

Prediction of SNOs between METOP-B and NOAA-19 Satellite Orbit:

Table of predicted SNOs for the next 14.0 days since TLE Epoch: 8/9/2019
Index Date (METOP-B) Time (METOP-B) Lat,Lon (METOP-B) SZA (METOP-B ) Date (NOAA-19) Time (NOAA-19) Lat,Lon (NOAA-19) SZA (NOAA-19 ) Distance(km) Time Diff (sec)
1 08/18/2019 04:56:30 79.43, 122.95 66.62 08/18/2019 04:55:22 79.46, 122.93 66.63 2.58 68
2 08/18/2019 05:47:11 -79.44, -69.70 113.36 08/18/2019 05:46:17 -79.44, -69.62 113.37 1.65 54
3 08/18/2019 06:37:51 79.45, 97.76 66.67 08/18/2019 06:37:22 79.43, 97.65 66.64 3.15 29
4 08/18/2019 07:28:33 -79.42, -95.15 113.36 08/18/2019 07:28:18 -79.44, -95.18 113.35 2.46 15
5 08/18/2019 08:19:13 79.44, 72.31 66.68 08/18/2019 08:19:22 79.41, 72.37 66.66 3.32 9
6 08/18/2019 09:09:55 -79.41,-120.60 113.36 08/18/2019 09:10:18 -79.42,-120.47 113.33 3.14 23
7 08/18/2019 10:00:35 79.42, 46.85 66.68 08/18/2019 10:01:23 79.42, 46.80 66.68 1.29 48
8 08/18/2019 10:51:16 -79.43,-145.79 113.31 08/18/2019 10:52:18 -79.40,-145.75 113.32 3.33 62




NCC Satellite Simultaneous Nadir Overpasses (SNOs) Prediction Service
